iso_date,epoch_date,Year,Hour,Min,DOY,POS_DOY,Lat,Lon,BP,Ts,Ta,has_bp,has_ts,has_ta,BuoyID,Buoy_Type,Buoy_Owner,Logistics,Hemisphere
2014-12-20T16:59:31Z,1419094771,2014,17,0,354.708,354.708,-67.5724,0.1276,992.3,-0.5,-1.6,yes,yes,yes,300234062424020,Snow_Buoy,AWI-USIABP,unknown,South
2014-12-20T18:00:00Z,1419098400,2014,18,0,354.75,354.75,-67.575,0.1192,992.0,-0.5,-2.7,yes,yes,yes,300234062424020,Snow_Buoy,AWI-USIABP,unknown,South
2014-12-20T19:00:28Z,1419102029,2014,19,0,354.792,354.792,-67.579,0.1132,991.8,-0.5,-3.0,yes,yes,yes,300234062424020,Snow_Buoy,AWI-USIABP,unknown,South
2014-12-20T19:59:31Z,1419105571,2014,20,0,354.833,354.833,-67.5836,0.1114,991.7,-0.5,-3.6,yes,yes,yes,300234062424020,Snow_Buoy,AWI-USIABP,unknown,South
2014-12-20T21:00:00Z,1419109200,2014,21,0,354.875,354.875,-67.5882,0.1158,991.3,-0.5,-3.7,yes,yes,yes,300234062424020,Snow_Buoy,AWI-USIABP,unknown,South
2014-12-20T22:00:28Z,1419112829,2014,22,0,354.917,354.917,-67.5924,0.1234,990.7,-0.5,-4.0,yes,yes,yes,300234062424020,Snow_Buoy,AWI-USIABP,unknown,South
2014-12-20T22:59:31Z,1419116371,2014,23,0,354.958,354.958,-67.5954,0.1314,990.3,-0.6,-3.9,yes,yes,yes,300234062424020,Snow_Buoy,AWI-USIABP,unknown,South
2014-12-21T00:00:00Z,1419120000,2014,0,0,355.0,355.0,-67.5978,0.1382,989.7,-0.6,-4.4,yes,yes,yes,300234062424020,Snow_Buoy,AWI-USIABP,unknown,South
2014-12-21T01:00:28Z,1419123629,2014,1,0,355.042,355.042,-67.599,0.142,989.2,-0.6,-4.2,yes,yes,yes,300234062424020,Snow_Buoy,AWI-USIABP,unknown,South
2014-12-21T01:59:31Z,1419127171,2014,2,0,355.083,355.083,-67.6004,0.1412,988.5,-0.6,-4.4,yes,yes,yes,300234062424020,Snow_Buoy,AWI-USIABP,unknown,South
2014-12-21T03:00:00Z,1419130800,2014,3,0,355.125,355.125,-67.602,0.1356,987.8,-0.6,-3.9,yes,yes,yes,300234062424020,Snow_Buoy,AWI-USIABP,unknown,South
2014-12-21T04:00:28Z,1419134429,2014,4,0,355.167,355.167,-67.6044,0.1278,986.9,-0.6,-3.6,yes,yes,yes,300234062424020,Snow_Buoy,AWI-USIABP,unknown,South
2014-12-21T04:59:31Z,1419137971,2014,5,0,355.208,355.208,-67.6078,0.1168,986.0,-0.6,-3.4,yes,yes,yes,300234062424020,Snow_Buoy,AWI-USIABP,unknown,South
2014-12-21T06:00:00Z,1419141600,2014,6,0,355.25,355.25,-67.6126,0.1034,985.3,-0.7,-3.1,yes,yes,yes,300234062424020,Snow_Buoy,AWI-USIABP,unknown,South
2014-12-21T07:00:28Z,1419145229,2014,7,0,355.292,355.292,-67.6186,0.091,984.7,-0.7,-2.9,yes,yes,yes,300234062424020,Snow_Buoy,AWI-USIABP,unknown,South
2014-12-21T07:59:31Z,1419148771,2014,8,0,355.333,355.333,-67.6258,0.0814,984.3,-0.7,-3.0,yes,yes,yes,300234062424020,Snow_Buoy,AWI-USIABP,unknown,South
2014-12-21T09:00:00Z,1419152400,2014,9,0,355.375,355.375,-67.6332,0.0756,983.7,-0.7,-3.1,yes,yes,yes,300234062424020,Snow_Buoy,AWI-USIABP,unknown,South
2014-12-21T10:00:28Z,1419156029,2014,10,0,355.417,355.417,-67.6406,0.074,983.1,-0.7,-2.9,yes,yes,yes,300234062424020,Snow_Buoy,AWI-USIABP,unknown,South
2014-12-21T10:59:31Z,1419159571,2014,11,0,355.458,355.458,-67.647,0.0746,982.5,-0.7,-2.6,yes,yes,yes,300234062424020,Snow_Buoy,AWI-USIABP,unknown,South
2014-12-21T12:00:00Z,1419163200,2014,12,0,355.5,355.5,-67.6518,0.0748,982.0,-0.7,-2.5,yes,yes,yes,300234062424020,Snow_Buoy,AWI-USIABP,unknown,South
2014-12-21T13:00:28Z,1419166829,2014,13,0,355.542,355.542,-67.655,0.0728,981.4,-0.7,-2.7,yes,yes,yes,300234062424020,Snow_Buoy,AWI-USIABP,unknown,South
2014-12-21T13:59:31Z,1419170371,2014,14,0,355.583,355.583,-67.6568,0.0672,980.6,-0.7,-2.8,yes,yes,yes,300234062424020,Snow_Buoy,AWI-USIABP,unknown,South
2014-12-21T15:00:00Z,1419174000,2014,15,0,355.625,355.625,-67.658,0.0558,980.1,-0.7,-3.0,yes,yes,yes,300234062424020,Snow_Buoy,AWI-USIABP,unknown,South
2014-12-21T16:00:28Z,1419177629,2014,16,0,355.667,355.667,-67.6596,0.0392,979.8,-0.7,-3.0,yes,yes,yes,300234062424020,Snow_Buoy,AWI-USIABP,unknown,South
2014-12-21T16:59:31Z,1419181171,2014,17,0,355.708,355.708,-67.662,0.0178,979.4,-0.7,-2.3,yes,yes,yes,300234062424020,Snow_Buoy,AWI-USIABP,unknown,South
2014-12-21T18:00:00Z,1419184800,2014,18,0,355.75,355.75,-67.6654,0.0054,979.1,-0.7,-2.0,yes,yes,yes,300234062424020,Snow_Buoy,AWI-USIABP,unknown,South
2014-12-21T19:00:28Z,1419188429,2014,19,0,355.792,355.792,-67.6694,0.0306,979.0,-0.7,-3.0,yes,yes,yes,300234062424020,Snow_Buoy,AWI-USIABP,unknown,South
2014-12-21T19:59:31Z,1419191971,2014,20,0,355.833,355.833,-67.6742,0.0542,979.1,-0.7,-2.8,yes,yes,yes,300234062424020,Snow_Buoy,AWI-USIABP,unknown,South
2014-12-21T21:00:00Z,1419195600,2014,21,0,355.875,355.875,-67.6798,0.0734,979.2,-0.7,-2.7,yes,yes,yes,300234062424020,Snow_Buoy,AWI-USIABP,unknown,South
2014-12-21T22:00:28Z,1419199229,2014,22,0,355.917,355.917,-67.6852,0.0864,979.3,-0.7,-2.6,yes,yes,yes,300234062424020,Snow_Buoy,AWI-USIABP,unknown,South
2014-12-21T22:59:31Z,1419202771,2014,23,0,355.958,355.958,-67.689,0.0938,979.4,-0.7,-2.7,yes,yes,yes,300234062424020,Snow_Buoy,AWI-USIABP,unknown,South
2014-12-22T00:00:00Z,1419206400,2014,0,0,356.0,356.0,-67.6908,0.097,979.4,-0.7,-3.2,yes,yes,yes,300234062424020,Snow_Buoy,AWI-USIABP,unknown,South
2014-12-22T01:00:28Z,1419210029,2014,1,0,356.042,356.042,-67.6902,0.0996,979.5,-0.7,-3.5,yes,yes,yes,300234062424020,Snow_Buoy,AWI-USIABP,unknown,South
2014-12-22T01:59:31Z,1419213571,2014,2,0,356.083,356.083,-67.6878,0.1048,979.4,-0.7,-4.0,yes,yes,yes,300234062424020,Snow_Buoy,AWI-USIABP,unknown,South
2014-12-22T03:00:00Z,1419217200,2014,3,0,356.125,356.125,-67.6836,0.114,979.5,-0.7,-3.7,yes,yes,yes,300234062424020,Snow_Buoy,AWI-USIABP,unknown,South
2014-12-22T04:00:28Z,1419220829,2014,4,0,356.167,356.167,-67.6784,0.1282,979.8,-0.7,-3.6,yes,yes,yes,300234062424020,Snow_Buoy,AWI-USIABP,unknown,South
2014-12-22T04:59:31Z,1419224371,2014,5,0,356.208,356.208,-67.6732,0.1486,980.1,-0.7,-3.1,yes,yes,yes,300234062424020,Snow_Buoy,AWI-USIABP,unknown,South
2014-12-22T06:00:00Z,1419228000,2014,6,0,356.25,356.25,-67.6694,0.1732,980.4,-0.7,-2.9,yes,yes,yes,300234062424020,Snow_Buoy,AWI-USIABP,unknown,South
2014-12-22T07:00:28Z,1419231629,2014,7,0,356.292,356.292,-67.6676,0.199,980.8,-0.7,-2.7,yes,yes,yes,300234062424020,Snow_Buoy,AWI-USIABP,unknown,South
2014-12-22T07:59:31Z,1419235171,2014,8,0,356.333,356.333,-67.6684,0.2218,981.2,-0.7,-2.4,yes,yes,yes,300234062424020,Snow_Buoy,AWI-USIABP,unknown,South
2014-12-22T09:00:00Z,1419238800,2014,9,0,356.375,356.375,-67.6704,0.238,981.7,-0.7,-2.2,yes,yes,yes,300234062424020,Snow_Buoy,AWI-USIABP,unknown,South
2014-12-22T10:00:28Z,1419242429,2014,10,0,356.417,356.417,-67.6736,0.2482,981.9,-0.7,-1.9,yes,yes,yes,300234062424020,Snow_Buoy,AWI-USIABP,unknown,South
2014-12-22T10:59:31Z,1419245971,2014,11,0,356.458,356.458,-67.6772,0.2522,982.1,-0.7,-1.9,yes,yes,yes,300234062424020,Snow_Buoy,AWI-USIABP,unknown,South
2014-12-22T12:00:00Z,1419249600,2014,12,0,356.5,356.5,-67.68,0.2514,982.4,-0.7,-1.8,yes,yes,yes,300234062424020,Snow_Buoy,AWI-USIABP,unknown,South
2014-12-22T13:00:28Z,1419253229,2014,13,0,356.542,356.542,-67.6818,0.247,982.9,-0.7,-1.5,yes,yes,yes,300234062424020,Snow_Buoy,AWI-USIABP,unknown,South
2014-12-22T13:59:31Z,1419256771,2014,14,0,356.583,356.583,-67.6818,0.2416,982.8,-0.7,-1.5,yes,yes,yes,300234062424020,Snow_Buoy,AWI-USIABP,unknown,South
2014-12-22T15:00:00Z,1419260400,2014,15,0,356.625,356.625,-67.6794,0.2404,983.1,-0.7,-1.3,yes,yes,yes,300234062424020,Snow_Buoy,AWI-USIABP,unknown,South
2014-12-22T16:00:28Z,1419264029,2014,16,0,356.667,356.667,-67.676,0.2452,983.3,-0.7,-1.6,yes,yes,yes,300234062424020,Snow_Buoy,AWI-USIABP,unknown,South
2014-12-22T16:59:31Z,1419267571,2014,17,0,356.708,356.708,-67.672,0.256,983.6,-0.7,-1.6,yes,yes,yes,300234062424020,Snow_Buoy,AWI-USIABP,unknown,South
2014-12-22T18:00:00Z,1419271200,2014,18,0,356.75,356.75,-67.6686,0.2722,983.8,-0.7,-1.7,yes,yes,yes,300234062424020,Snow_Buoy,AWI-USIABP,unknown,South
2014-12-22T19:00:28Z,1419274829,2014,19,0,356.792,356.792,-67.6662,0.2916,984.1,-0.7,-1.8,yes,yes,yes,300234062424020,Snow_Buoy,AWI-USIABP,unknown,South
2014-12-22T19:59:31Z,1419278371,2014,20,0,356.833,356.833,-67.6652,0.3112,984.6,-0.7,-1.9,yes,yes,yes,300234062424020,Snow_Buoy,AWI-USIABP,unknown,South
2014-12-22T21:00:00Z,1419282000,2014,21,0,356.875,356.875,-67.6664,0.3276,984.9,-0.7,-2.1,yes,yes,yes,300234062424020,Snow_Buoy,AWI-USIABP,unknown,South
2014-12-22T22:00:28Z,1419285629,2014,22,0,356.917,356.917,-67.6692,0.3386,985.2,-0.7,-2.3,yes,yes,yes,300234062424020,Snow_Buoy,AWI-USIABP,unknown,South
2014-12-22T22:59:31Z,1419289171,2014,23,0,356.958,356.958,-67.6724,0.3432,985.3,-0.7,-2.4,yes,yes,yes,300234062424020,Snow_Buoy,AWI-USIABP,unknown,South
2014-12-23T00:00:00Z,1419292800,2014,0,0,357.0,357.0,-67.6752,0.3418,985.7,-0.7,-2.6,yes,yes,yes,300234062424020,Snow_Buoy,AWI-USIABP,unknown,South
2014-12-23T01:00:28Z,1419296429,2014,1,0,357.042,357.042,-67.6768,0.335,985.7,-0.7,-2.6,yes,yes,yes,300234062424020,Snow_Buoy,AWI-USIABP,unknown,South
2014-12-23T01:59:31Z,1419299971,2014,2,0,357.083,357.083,-67.6766,0.3262,985.9,-0.7,-2.7,yes,yes,yes,300234062424020,Snow_Buoy,AWI-USIABP,unknown,South
2014-12-23T03:00:00Z,1419303600,2014,3,0,357.125,357.125,-67.6744,0.3172,986.0,-0.7,-2.7,yes,yes,yes,300234062424020,Snow_Buoy,AWI-USIABP,unknown,South
2014-12-23T04:00:28Z,1419307229,2014,4,0,357.167,357.167,-67.6706,0.3118,986.2,-0.7,-2.5,yes,yes,yes,300234062424020,Snow_Buoy,AWI-USIABP,unknown,South
2014-12-23T04:59:31Z,1419310771,2014,5,0,357.208,357.208,-67.6658,0.3116,986.3,-0.7,-2.3,yes,yes,yes,300234062424020,Snow_Buoy,AWI-USIABP,unknown,South
2014-12-23T06:00:00Z,1419314400,2014,6,0,357.25,357.25,-67.6612,0.3172,986.6,-0.7,-1.9,yes,yes,yes,300234062424020,Snow_Buoy,AWI-USIABP,unknown,South
2014-12-23T07:00:28Z,1419318029,2014,7,0,357.292,357.292,-67.6574,0.3274,986.9,-0.7,-1.5,yes,yes,yes,300234062424020,Snow_Buoy,AWI-USIABP,unknown,South
2014-12-23T07:59:31Z,1419321571,2014,8,0,357.333,357.333,-67.6546,0.3398,987.1,-0.7,-1.0,yes,yes,yes,300234062424020,Snow_Buoy,AWI-USIABP,unknown,South
2014-12-23T09:00:00Z,1419325200,2014,9,0,357.375,357.375,-67.6538,0.3512,987.3,-0.7,-0.4,yes,yes,yes,300234062424020,Snow_Buoy,AWI-USIABP,unknown,South
2014-12-23T10:00:28Z,1419328829,2014,10,0,357.417,357.417,-67.6546,0.3594,987.5,-0.7,0.3,yes,yes,yes,300234062424020,Snow_Buoy,AWI-USIABP,unknown,South
2014-12-23T10:59:31Z,1419332371,2014,11,0,357.458,357.458,-67.6562,0.3616,987.4,-0.7,0.4,yes,yes,yes,300234062424020,Snow_Buoy,AWI-USIABP,unknown,South
2014-12-23T12:00:00Z,1419336000,2014,12,0,357.5,357.5,-67.6578,0.3576,987.4,-0.6,0.2,yes,yes,yes,300234062424020,Snow_Buoy,AWI-USIABP,unknown,South
2014-12-23T13:00:28Z,1419339629,2014,13,0,357.542,357.542,-67.6588,0.3476,986.9,-0.6,-0.3,yes,yes,yes,300234062424020,Snow_Buoy,AWI-USIABP,unknown,South
2014-12-23T13:59:31Z,1419343171,2014,14,0,357.583,357.583,-67.6586,0.3336,987.2,-0.6,0.1,yes,yes,yes,300234062424020,Snow_Buoy,AWI-USIABP,unknown,South
2014-12-23T15:00:00Z,1419346800,2014,15,0,357.625,357.625,-67.6572,0.3188,986.9,-0.6,0.4,yes,yes,yes,300234062424020,Snow_Buoy,AWI-USIABP,unknown,South
2014-12-23T16:00:28Z,1419350429,2014,16,0,357.667,357.667,-67.6546,0.3062,986.6,-0.6,-0.1,yes,yes,yes,300234062424020,Snow_Buoy,AWI-USIABP,unknown,South
2014-12-23T16:59:31Z,1419353971,2014,17,0,357.708,357.708,-67.651,0.298,986.1,-0.6,-0.9,yes,yes,yes,300234062424020,Snow_Buoy,AWI-USIABP,unknown,South
2014-12-23T18:00:00Z,1419357600,2014,18,0,357.75,357.75,-67.6468,0.2944,985.9,-0.6,-1.0,yes,yes,yes,300234062424020,Snow_Buoy,AWI-USIABP,unknown,South
2014-12-23T19:00:28Z,1419361229,2014,19,0,357.792,357.792,-67.6426,0.2954,985.8,-0.6,-1.1,yes,yes,yes,300234062424020,Snow_Buoy,AWI-USIABP,unknown,South
2014-12-23T19:59:31Z,1419364771,2014,20,0,357.833,357.833,-67.6388,0.2998,985.7,-0.6,-1.4,yes,yes,yes,300234062424020,Snow_Buoy,AWI-USIABP,unknown,South
2014-12-23T21:00:00Z,1419368400,2014,21,0,357.875,357.875,-67.636,0.3062,985.6,-0.6,-1.5,yes,yes,yes,300234062424020,Snow_Buoy,AWI-USIABP,unknown,South
2014-12-23T22:00:28Z,1419372029,2014,22,0,357.917,357.917,-67.6346,0.3128,985.5,-0.6,-1.6,yes,yes,yes,300234062424020,Snow_Buoy,AWI-USIABP,unknown,South
2014-12-23T22:59:31Z,1419375571,2014,23,0,357.958,357.958,-67.6346,0.3178,985.4,-0.6,-1.7,yes,yes,yes,300234062424020,Snow_Buoy,AWI-USIABP,unknown,South
2014-12-24T00:00:00Z,1419379200,2014,0,0,358.0,358.0,-67.6358,0.3196,985.1,-0.6,-1.9,yes,yes,yes,300234062424020,Snow_Buoy,AWI-USIABP,unknown,South
2014-12-24T01:00:28Z,1419382829,2014,1,0,358.042,358.042,-67.637,0.3156,984.9,-0.6,-2.1,yes,yes,yes,300234062424020,Snow_Buoy,AWI-USIABP,unknown,South
2014-12-24T01:59:31Z,1419386371,2014,2,0,358.083,358.083,-67.6374,0.3072,984.7,-0.6,-2.3,yes,yes,yes,300234062424020,Snow_Buoy,AWI-USIABP,unknown,South
2014-12-24T03:00:00Z,1419390000,2014,3,0,358.125,358.125,-67.6366,0.2958,984.7,-0.6,-2.5,yes,yes,yes,300234062424020,Snow_Buoy,AWI-USIABP,unknown,South
2014-12-24T04:00:28Z,1419393629,2014,4,0,358.167,358.167,-67.6346,0.2856,984.6,-0.6,-2.6,yes,yes,yes,300234062424020,Snow_Buoy,AWI-USIABP,unknown,South
2014-12-24T04:59:31Z,1419397171,2014,5,0,358.208,358.208,-67.631,0.2794,984.8,-0.6,-2.5,yes,yes,yes,300234062424020,Snow_Buoy,AWI-USIABP,unknown,South
2014-12-24T06:00:00Z,1419400800,2014,6,0,358.25,358.25,-67.6266,0.2776,984.9,-0.6,-2.5,yes,yes,yes,300234062424020,Snow_Buoy,AWI-USIABP,unknown,South
2014-12-24T07:00:28Z,1419404429,2014,7,0,358.292,358.292,-67.6222,0.2802,984.9,-0.6,-2.1,yes,yes,yes,300234062424020,Snow_Buoy,AWI-USIABP,unknown,South
2014-12-24T07:59:31Z,1419407971,2014,8,0,358.333,358.333,-67.618,0.2838,985.3,-0.6,-1.9,yes,yes,yes,300234062424020,Snow_Buoy,AWI-USIABP,unknown,South
2014-12-24T09:00:00Z,1419411600,2014,9,0,358.375,358.375,-67.6142,0.2882,985.5,-0.6,-1.1,yes,yes,yes,300234062424020,Snow_Buoy,AWI-USIABP,unknown,South
2014-12-24T10:00:28Z,1419415229,2014,10,0,358.417,358.417,-67.611,0.2906,985.7,-0.6,-0.8,yes,yes,yes,300234062424020,Snow_Buoy,AWI-USIABP,unknown,South
2014-12-24T10:59:31Z,1419418771,2014,11,0,358.458,358.458,-67.609,0.2926,986.0,-0.6,0.1,yes,yes,yes,300234062424020,Snow_Buoy,AWI-USIABP,unknown,South
2014-12-24T12:00:00Z,1419422400,2014,12,0,358.5,358.5,-67.6084,0.2942,986.3,-0.6,0.5,yes,yes,yes,300234062424020,Snow_Buoy,AWI-USIABP,unknown,South
2014-12-24T13:00:28Z,1419426029,2014,13,0,358.542,358.542,-67.609,0.2932,985.7,-0.6,-0.1,yes,yes,yes,300234062424020,Snow_Buoy,AWI-USIABP,unknown,South
2014-12-24T13:59:31Z,1419429571,2014,14,0,358.583,358.583,-67.6102,0.2898,986.1,-0.6,0.8,yes,yes,yes,300234062424020,Snow_Buoy,AWI-USIABP,unknown,South
2014-12-24T15:00:00Z,1419433200,2014,15,0,358.625,358.625,-67.6118,0.2846,986.0,-0.6,1.0,yes,yes,yes,300234062424020,Snow_Buoy,AWI-USIABP,unknown,South
2014-12-24T16:00:28Z,1419436829,2014,16,0,358.667,358.667,-67.6134,0.2782,986.2,-0.6,0.8,yes,yes,yes,300234062424020,Snow_Buoy,AWI-USIABP,unknown,South
2014-12-24T16:59:31Z,1419440371,2014,17,0,358.708,358.708,-67.6142,0.2726,986.2,-0.6,1.4,yes,yes,yes,300234062424020,Snow_Buoy,AWI-USIABP,unknown,South
2014-12-24T18:00:00Z,1419444000,2014,18,0,358.75,358.75,-67.614,0.269,986.3,-0.6,-0.1,yes,yes,yes,300234062424020,Snow_Buoy,AWI-USIABP,unknown,South
2014-12-24T19:00:28Z,1419447629,2014,19,0,358.792,358.792,-67.6118,0.2664,986.8,-0.6,-0.8,yes,yes,yes,300234062424020,Snow_Buoy,AWI-USIABP,unknown,South
2014-12-24T19:59:31Z,1419451171,2014,20,0,358.833,358.833,-67.606,0.2648,987.2,-0.6,-1.0,yes,yes,yes,300234062424020,Snow_Buoy,AWI-USIABP,unknown,South
2014-12-24T21:00:00Z,1419454800,2014,21,0,358.875,358.875,-67.5998,0.2662,987.5,-0.6,-1.9,yes,yes,yes,300234062424020,Snow_Buoy,AWI-USIABP,unknown,South
2014-12-24T22:00:28Z,1419458429,2014,22,0,358.917,358.917,-67.5934,0.27,987.8,-0.6,-2.0,yes,yes,yes,300234062424020,Snow_Buoy,AWI-USIABP,unknown,South
2014-12-24T22:59:31Z,1419461971,2014,23,0,358.958,358.958,-67.5878,0.276,988.2,-0.6,-1.8,yes,yes,yes,300234062424020,Snow_Buoy,AWI-USIABP,unknown,South
2014-12-25T00:00:00Z,1419465600,2014,0,0,359.0,359.0,-67.584,0.2838,988.3,-0.6,-1.8,yes,yes,yes,300234062424020,Snow_Buoy,AWI-USIABP,unknown,South
2014-12-25T01:00:28Z,1419469229,2014,1,0,359.042,359.042,-67.582,0.2928,988.5,-0.6,-1.9,yes,yes,yes,300234062424020,Snow_Buoy,AWI-USIABP,unknown,South
2014-12-25T01:59:31Z,1419472771,2014,2,0,359.083,359.083,-67.5828,0.3008,988.6,-0.6,-1.9,yes,yes,yes,300234062424020,Snow_Buoy,AWI-USIABP,unknown,South
2014-12-25T03:00:00Z,1419476400,2014,3,0,359.125,359.125,-67.5856,0.3056,988.8,-0.6,-1.8,yes,yes,yes,300234062424020,Snow_Buoy,AWI-USIABP,unknown,South
2014-12-25T04:00:28Z,1419480029,2014,4,0,359.167,359.167,-67.5894,0.306,988.8,-0.6,-2.6,yes,yes,yes,300234062424020,Snow_Buoy,AWI-USIABP,unknown,South
2014-12-25T04:59:31Z,1419483571,2014,5,0,359.208,359.208,-67.5928,0.301,989.2,-0.6,-2.7,yes,yes,yes,300234062424020,Snow_Buoy,AWI-USIABP,unknown,South
2014-12-25T06:00:00Z,1419487200,2014,6,0,359.25,359.25,-67.5948,0.2926,989.5,-0.6,-2.4,yes,yes,yes,300234062424020,Snow_Buoy,AWI-USIABP,unknown,South
2014-12-25T07:00:28Z,1419490829,2014,7,0,359.292,359.292,-67.5946,0.283,989.9,-0.6,-1.6,yes,yes,yes,300234062424020,Snow_Buoy,AWI-USIABP,unknown,South
2014-12-25T07:59:31Z,1419494371,2014,8,0,359.333,359.333,-67.5912,0.272,990.3,-0.6,-0.8,yes,yes,yes,300234062424020,Snow_Buoy,AWI-USIABP,unknown,South
2014-12-25T09:00:00Z,1419498000,2014,9,0,359.375,359.375,-67.5856,0.2646,990.3,-0.6,-0.2,yes,yes,yes,300234062424020,Snow_Buoy,AWI-USIABP,unknown,South
2014-12-25T10:00:28Z,1419501629,2014,10,0,359.417,359.417,-67.5788,0.2614,990.6,-0.6,0.3,yes,yes,yes,300234062424020,Snow_Buoy,AWI-USIABP,unknown,South
2014-12-25T10:59:31Z,1419505171,2014,11,0,359.458,359.458,-67.5724,0.262,990.3,-0.6,0.6,yes,yes,yes,300234062424020,Snow_Buoy,AWI-USIABP,unknown,South
2014-12-25T12:00:00Z,1419508800,2014,12,0,359.5,359.5,-67.5666,0.2618,990.3,-0.6,0.5,yes,yes,yes,300234062424020,Snow_Buoy,AWI-USIABP,unknown,South
2014-12-25T13:00:28Z,1419512429,2014,13,0,359.542,359.542,-67.5624,0.2606,990.2,-0.6,0.4,yes,yes,yes,300234062424020,Snow_Buoy,AWI-USIABP,unknown,South
2014-12-25T13:59:31Z,1419515971,2014,14,0,359.583,359.583,-67.56,0.2576,990.4,-0.6,0.4,yes,yes,yes,300234062424020,Snow_Buoy,AWI-USIABP,unknown,South
2014-12-25T15:00:00Z,1419519600,2014,15,0,359.625,359.625,-67.5592,0.2528,990.5,-0.6,0.5,yes,yes,yes,300234062424020,Snow_Buoy,AWI-USIABP,unknown,South
2014-12-25T16:00:28Z,1419523229,2014,16,0,359.667,359.667,-67.5594,0.2472,990.5,-0.6,0.7,yes,yes,yes,300234062424020,Snow_Buoy,AWI-USIABP,unknown,South
2014-12-25T16:59:31Z,1419526771,2014,17,0,359.708,359.708,-67.56,0.2398,990.3,-0.6,-0.1,yes,yes,yes,300234062424020,Snow_Buoy,AWI-USIABP,unknown,South
2014-12-25T18:00:00Z,1419530400,2014,18,0,359.75,359.75,-67.5592,0.2296,990.8,-0.6,0.0,yes,yes,yes,300234062424020,Snow_Buoy,AWI-USIABP,unknown,South
2014-12-25T19:00:28Z,1419534029,2014,19,0,359.792,359.792,-67.5576,0.2192,990.6,-0.6,-0.4,yes,yes,yes,300234062424020,Snow_Buoy,AWI-USIABP,unknown,South
2014-12-25T19:59:31Z,1419537571,2014,20,0,359.833,359.833,-67.555,0.2102,991.3,-0.6,-0.3,yes,yes,yes,300234062424020,Snow_Buoy,AWI-USIABP,unknown,South
2014-12-25T21:00:00Z,1419541200,2014,21,0,359.875,359.875,-67.5514,0.2018,991.3,-0.6,-0.5,yes,yes,yes,300234062424020,Snow_Buoy,AWI-USIABP,unknown,South
2014-12-25T22:00:28Z,1419544829,2014,22,0,359.917,359.917,-67.5466,0.196,991.2,-0.6,-0.8,yes,yes,yes,300234062424020,Snow_Buoy,AWI-USIABP,unknown,South
2014-12-25T22:59:31Z,1419548371,2014,23,0,359.958,359.958,-67.5418,0.1924,991.4,-0.6,-0.8,yes,yes,yes,300234062424020,Snow_Buoy,AWI-USIABP,unknown,South
2014-12-26T00:00:00Z,1419552000,2014,0,0,360.0,360.0,-67.538,0.1912,991.4,-0.6,-0.8,yes,yes,yes,300234062424020,Snow_Buoy,AWI-USIABP,unknown,South
2014-12-26T01:00:28Z,1419555629,2014,1,0,360.042,360.042,-67.5356,0.1904,991.3,-0.6,-0.9,yes,yes,yes,300234062424020,Snow_Buoy,AWI-USIABP,unknown,South
2014-12-26T01:59:31Z,1419559171,2014,2,0,360.083,360.083,-67.5342,0.1886,991.4,-0.6,-1.0,yes,yes,yes,300234062424020,Snow_Buoy,AWI-USIABP,unknown,South
2014-12-26T03:00:00Z,1419562800,2014,3,0,360.125,360.125,-67.534,0.1844,991.3,-0.6,-1.1,yes,yes,yes,300234062424020,Snow_Buoy,AWI-USIABP,unknown,South
2014-12-26T04:00:28Z,1419566429,2014,4,0,360.167,360.167,-67.5344,0.1778,991.5,-0.6,-1.1,yes,yes,yes,300234062424020,Snow_Buoy,AWI-USIABP,unknown,South
2014-12-26T04:59:31Z,1419569971,2014,5,0,360.208,360.208,-67.5346,0.1706,991.6,-0.6,-1.1,yes,yes,yes,300234062424020,Snow_Buoy,AWI-USIABP,unknown,South
2014-12-26T06:00:00Z,1419573600,2014,6,0,360.25,360.25,-67.5348,0.1618,991.6,-0.6,-1.2,yes,yes,yes,300234062424020,Snow_Buoy,AWI-USIABP,unknown,South
2014-12-26T07:00:28Z,1419577229,2014,7,0,360.292,360.292,-67.5336,0.1516,991.7,-0.6,-1.4,yes,yes,yes,300234062424020,Snow_Buoy,AWI-USIABP,unknown,South
2014-12-26T07:59:31Z,1419580771,2014,8,0,360.333,360.333,-67.5306,0.1418,992.0,-0.6,-1.2,yes,yes,yes,300234062424020,Snow_Buoy,AWI-USIABP,unknown,South
2014-12-26T09:00:00Z,1419584400,2014,9,0,360.375,360.375,-67.5268,0.1354,991.9,-0.6,-0.5,yes,yes,yes,300234062424020,Snow_Buoy,AWI-USIABP,unknown,South
2014-12-26T10:00:28Z,1419588029,2014,10,0,360.417,360.417,-67.523,0.1328,991.8,-0.6,-0.3,yes,yes,yes,300234062424020,Snow_Buoy,AWI-USIABP,unknown,South
2014-12-26T10:59:31Z,1419591571,2014,11,0,360.458,360.458,-67.52,0.1304,991.6,-0.6,0.0,yes,yes,yes,300234062424020,Snow_Buoy,AWI-USIABP,unknown,South
2014-12-26T12:00:00Z,1419595200,2014,12,0,360.5,360.5,-67.5184,0.127,991.6,-0.6,0.2,yes,yes,yes,300234062424020,Snow_Buoy,AWI-USIABP,unknown,South
2014-12-26T13:00:28Z,1419598829,2014,13,0,360.542,360.542,-67.5176,0.1214,991.5,-0.6,0.5,yes,yes,yes,300234062424020,Snow_Buoy,AWI-USIABP,unknown,South
2014-12-26T13:59:31Z,1419602371,2014,14,0,360.583,360.583,-67.5172,0.1136,991.4,-0.6,0.6,yes,yes,yes,300234062424020,Snow_Buoy,AWI-USIABP,unknown,South
2014-12-26T15:00:00Z,1419606000,2014,15,0,360.625,360.625,-67.5172,0.104,991.3,-0.6,0.6,yes,yes,yes,300234062424020,Snow_Buoy,AWI-USIABP,unknown,South
2014-12-26T16:00:28Z,1419609629,2014,16,0,360.667,360.667,-67.5172,0.0944,991.0,-0.6,0.7,yes,yes,yes,300234062424020,Snow_Buoy,AWI-USIABP,unknown,South
2014-12-26T16:59:31Z,1419613171,2014,17,0,360.708,360.708,-67.5168,0.085,991.0,-0.5,0.9,yes,yes,yes,300234062424020,Snow_Buoy,AWI-USIABP,unknown,South
2014-12-26T18:00:00Z,1419616800,2014,18,0,360.75,360.75,-67.5162,0.076,990.7,-0.5,0.3,yes,yes,yes,300234062424020,Snow_Buoy,AWI-USIABP,unknown,South
2014-12-26T19:00:28Z,1419620429,2014,19,0,360.792,360.792,-67.5152,0.0692,990.7,-0.5,0.0,yes,yes,yes,300234062424020,Snow_Buoy,AWI-USIABP,unknown,South
2014-12-26T19:59:31Z,1419623971,2014,20,0,360.833,360.833,-67.5142,0.0654,990.7,-0.5,-0.4,yes,yes,yes,300234062424020,Snow_Buoy,AWI-USIABP,unknown,South
2014-12-26T21:00:00Z,1419627600,2014,21,0,360.875,360.875,-67.513,0.0638,990.6,-0.5,-0.5,yes,yes,yes,300234062424020,Snow_Buoy,AWI-USIABP,unknown,South
2014-12-26T22:00:28Z,1419631229,2014,22,0,360.917,360.917,-67.5126,0.0622,990.6,-0.5,-0.7,yes,yes,yes,300234062424020,Snow_Buoy,AWI-USIABP,unknown,South
2014-12-26T22:59:31Z,1419634771,2014,23,0,360.958,360.958,-67.5128,0.0606,990.4,-0.5,-0.9,yes,yes,yes,300234062424020,Snow_Buoy,AWI-USIABP,unknown,South
2014-12-27T00:00:00Z,1419638400,2014,0,0,361.0,361.0,-67.5128,0.059,990.3,-0.5,-1.1,yes,yes,yes,300234062424020,Snow_Buoy,AWI-USIABP,unknown,South
2014-12-27T01:00:28Z,1419642029,2014,1,0,361.042,361.042,-67.5126,0.057,990.1,-0.6,-1.3,yes,yes,yes,300234062424020,Snow_Buoy,AWI-USIABP,unknown,South
2014-12-27T01:59:31Z,1419645571,2014,2,0,361.083,361.083,-67.5118,0.0534,989.9,-0.6,-1.4,yes,yes,yes,300234062424020,Snow_Buoy,AWI-USIABP,unknown,South
2014-12-27T03:00:00Z,1419649200,2014,3,0,361.125,361.125,-67.5112,0.0506,989.9,-0.6,-1.5,yes,yes,yes,300234062424020,Snow_Buoy,AWI-USIABP,unknown,South
2014-12-27T04:00:28Z,1419652829,2014,4,0,361.167,361.167,-67.5106,0.047,989.8,-0.6,-1.5,yes,yes,yes,300234062424020,Snow_Buoy,AWI-USIABP,unknown,South
2014-12-27T04:59:31Z,1419656371,2014,5,0,361.208,361.208,-67.5102,0.0436,989.8,-0.6,-1.2,yes,yes,yes,300234062424020,Snow_Buoy,AWI-USIABP,unknown,South